Weather History for Delaware, OH

Change the Weather History Date:

Monday, March 25, 2013

  Actual Average Record
Temperature  
Mean Temperature 32 °F -  
Max Temperature 33 °F 49 °F 82 °F (1945)
Min Temperature 30 °F 29 °F 1 °F (1974)
Degree Days  
Heating Degree Days 34    
Moisture  
Dew Point 30 °F    
Average Humidity 93    
Maximum Humidity 100    
Minimum Humidity 87    
Precipitation  
Precipitation 0.09 in - - ()
Sea Level Pressure  
Sea Level Pressure 29.56 in    
Wind  
Wind Speed 7 mph (NNW)    
Max Wind Speed 15 mph    
Max Gust Speed 20 mph    
Visibility 4 miles    
Events Snow    
Averages and records for this station are not official NWS values.
T = Trace of Precipitation, MM = Missing Value Source: NWS Daily Summary

Daily Weather History Graph

Daily Weather History Graph

Search for Another Location

Airport:

Trip Planner

Search our weather history database for the weather conditions in past years. The results will help you decide how hot, cold, wet, or windy it might be!

Date:

Astronomy

Mar. 25, 2013 Rise Set
Actual Time 7:27 AM EDT 7:49 PM EDT
Civil Twilight 7:00 AM EDT 8:17 PM EDT
Nautical Twilight 6:28 AM EDT 8:49 PM EDT
Astronomical Twilight 5:55 AM EDT 9:22 PM EDT
Moon 6:20 PM EDT 6:10 AM EDT
Length of Visible Light 13h 17m
Length of Day
12h 22m
Waxing Gibbous, 96% of the Moon is Illuminated
Mar 25
Waxing Gibbous
Mar 27
Full
Apr 3
Last Quarter
Apr 10
New
Apr 18
First Quarter

Hourly Weather History & Observations

Time (EDT) Temp. Windchill Dew Point Humidity Pressure Visibility Wind Dir Wind Speed Gust Speed Precip Events Conditions
12:15 AM 30.2 °F 22.6 °F 28.4 °F 93% 29.44 in 1.0 mi NNE 8.1 mph 16.1 mph N/A Snow Light Snow
12:55 AM 30.2 °F 24.3 °F 28.4 °F 93% 29.44 in 0.5 mi North 5.8 mph - 0.03 in Snow Heavy Snow
1:15 AM 30.2 °F 25.4 °F 28.4 °F 93% 29.43 in 0.8 mi North 4.6 mph - 0.02 in Snow Snow
1:35 AM 30.2 °F 24.3 °F 28.4 °F 93% 29.43 in 1.0 mi North 5.8 mph - 0.03 in Snow Light Snow
1:55 AM 30.2 °F 24.3 °F 28.4 °F 93% 29.42 in 1.2 mi North 5.8 mph - 0.04 in Snow Light Snow
2:15 AM 30.2 °F 23.4 °F 28.4 °F 93% 29.42 in 1.2 mi North 6.9 mph - 0.01 in Snow Light Snow
2:35 AM 30.2 °F 22.6 °F 28.4 °F 93% 29.41 in 1.8 mi North 8.1 mph - 0.01 in Snow Light Snow
2:56 AM 30.2 °F 23.4 °F 28.4 °F 93% 29.41 in 2.5 mi North 6.9 mph - 0.01 in Snow Light Snow
3:15 AM 30.2 °F 23.4 °F 28.4 °F 93% 29.40 in 1.5 mi North 6.9 mph - 0.01 in Snow Light Snow
3:35 AM 30.2 °F 23.4 °F 28.4 °F 93% 29.40 in 1.8 mi North 6.9 mph - 0.01 in Snow Light Snow
3:56 AM 30.2 °F 25.4 °F 28.4 °F 93% 29.40 in 2.5 mi North 4.6 mph - 0.01 in Snow Light Snow
4:15 AM 30.2 °F 26.7 °F 28.4 °F 93% 29.40 in 2.5 mi North 3.5 mph - N/A Snow Light Snow
4:35 AM 30.2 °F 26.7 °F 28.4 °F 93% 29.39 in 2.0 mi NNW 3.5 mph - N/A Snow Light Snow
4:56 AM 30.2 °F 26.7 °F 28.4 °F 93% 29.39 in 3.0 mi NNW 3.5 mph - N/A   Overcast
5:15 AM 30.2 °F - 28.4 °F 93% 29.39 in 4.0 mi Calm Calm - N/A Snow Light Snow
5:35 AM 30.2 °F 26.7 °F 28.4 °F 93% 29.39 in 4.0 mi NNW 3.5 mph - N/A Snow Light Snow
5:56 AM 30.2 °F - 28.4 °F 93% 29.39 in 5.0 mi Calm Calm - N/A   Overcast
6:15 AM 30.2 °F - 28.4 °F 93% 29.39 in 5.0 mi Calm Calm - N/A   Overcast
6:35 AM 30.2 °F - 28.4 °F 93% 29.40 in 7.0 mi Calm Calm - N/A   Overcast
6:55 AM 30.2 °F - 28.4 °F 93% 29.40 in 5.0 mi Calm Calm - N/A   Overcast
7:15 AM 30.2 °F 26.7 °F 28.4 °F 93% 29.40 in 5.0 mi West 3.5 mph - N/A   Overcast
7:36 AM 30.2 °F - 28.4 °F 93% 29.41 in 5.0 mi Calm Calm - N/A   Overcast
7:55 AM 30.2 °F 26.7 °F 28.4 °F 93% 29.41 in 4.0 mi West 3.5 mph - N/A   Overcast
8:15 AM 30.2 °F - 28.4 °F 93% 29.42 in 3.0 mi Calm Calm - N/A   Overcast
8:36 AM 30.2 °F 26.7 °F 28.4 °F 93% 29.43 in 2.5 mi West 3.5 mph - N/A   Overcast
8:55 AM 30.2 °F 26.7 °F 30.2 °F 100% 29.43 in 2.0 mi WSW 3.5 mph - N/A   Overcast
9:15 AM 30.2 °F 26.7 °F 30.2 °F 100% 29.43 in 2.0 mi West 3.5 mph - N/A   Overcast
9:36 AM 32.0 °F 28.7 °F 30.2 °F 93% 29.44 in 2.5 mi West 3.5 mph - N/A Snow Light Snow
9:55 AM 32.0 °F 28.7 °F 30.2 °F 93% 29.44 in 4.0 mi West 3.5 mph - N/A Snow Light Snow
10:15 AM 32.0 °F 28.7 °F 30.2 °F 93% 29.45 in 4.0 mi WNW 3.5 mph - N/A Snow Light Snow
10:36 AM 32.0 °F 27.5 °F 30.2 °F 93% 29.46 in 7.0 mi WNW 4.6 mph - N/A Snow Light Snow
10:55 AM 32.0 °F 27.5 °F 30.2 °F 93% 29.46 in 10.0 mi NW 4.6 mph - N/A   Overcast
11:15 AM 32.0 °F 28.7 °F 30.2 °F 93% 29.47 in 10.0 mi NW 3.5 mph - N/A   Overcast
11:36 AM 33.8 °F 30.8 °F 30.2 °F 87% 29.48 in 10.0 mi WNW 3.5 mph - N/A   Overcast
11:55 AM 33.8 °F 28.6 °F 30.2 °F 87% 29.50 in 10.0 mi NNW 5.8 mph - N/A   Overcast
12:15 PM 33.8 °F 28.6 °F 30.2 °F 87% 29.50 in 7.0 mi NW 5.8 mph - N/A   Overcast
12:36 PM 33.8 °F 27.0 °F 30.2 °F 87% 29.51 in 7.0 mi NNW 8.1 mph - N/A   Overcast
12:55 PM 33.8 °F 26.4 °F 30.2 °F 87% 29.52 in 10.0 mi NNW 9.2 mph - N/A   Overcast
1:15 PM 33.8 °F 25.3 °F 30.2 °F 87% 29.53 in 7.0 mi North 11.5 mph - N/A   Overcast
1:35 PM 33.8 °F 25.3 °F 30.2 °F 87% 29.53 in 10.0 mi North 11.5 mph - N/A   Overcast
1:55 PM 33.8 °F 27.0 °F 30.2 °F 87% 29.55 in 7.0 mi North 8.1 mph - N/A   Overcast
2:15 PM 33.8 °F 27.0 °F 30.2 °F 87% 29.55 in 10.0 mi NNW 8.1 mph - N/A   Overcast
2:36 PM 32.0 °F 23.0 °F 30.2 °F 93% 29.56 in 7.0 mi NNW 11.5 mph - N/A   Overcast
2:55 PM 32.0 °F 23.0 °F 30.2 °F 93% 29.57 in 10.0 mi NNW 11.5 mph 19.6 mph N/A   Overcast
3:15 PM 32.0 °F 22.5 °F 30.2 °F 93% 29.58 in 10.0 mi NNW 12.7 mph - N/A   Overcast
3:36 PM 32.0 °F 23.6 °F 30.2 °F 93% 29.59 in 7.0 mi NNW 10.4 mph 19.6 mph N/A Snow Light Snow
3:55 PM 33.8 °F 23.9 °F 30.2 °F 87% 29.60 in 10.0 mi NNW 15.0 mph 19.6 mph N/A   Overcast
4:16 PM 32.0 °F 22.1 °F 30.2 °F 93% 29.61 in 3.0 mi NNW 13.8 mph 19.6 mph N/A Snow Light Snow
4:35 PM 32.0 °F 22.5 °F 30.2 °F 93% 29.62 in 1.8 mi NNW 12.7 mph - N/A Snow Light Snow
4:55 PM 32.0 °F 23.6 °F 30.2 °F 93% 29.63 in 1.5 mi NNW 10.4 mph 17.3 mph N/A Snow Light Snow
5:16 PM 32.0 °F 21.6 °F 30.2 °F 93% 29.65 in 2.0 mi NNW 15.0 mph 19.6 mph N/A Snow Light Snow
5:35 PM 32.0 °F 23.6 °F 30.2 °F 93% 29.66 in 2.5 mi NW 10.4 mph - N/A Snow Light Snow
5:55 PM 32.0 °F 21.6 °F 30.2 °F 93% 29.67 in 1.8 mi NNW 15.0 mph 18.4 mph N/A Snow Light Snow
6:16 PM 32.0 °F 23.6 °F 30.2 °F 93% 29.69 in 1.8 mi NNW 10.4 mph 17.3 mph N/A Snow Light Snow
6:35 PM 32.0 °F 22.1 °F 30.2 °F 93% 29.70 in 1.5 mi NNW 13.8 mph 19.6 mph N/A Snow Light Snow
6:55 PM 32.0 °F 22.1 °F 30.2 °F 93% 29.71 in 1.5 mi NW 13.8 mph 18.4 mph N/A Snow Light Snow
7:16 PM 32.0 °F 22.5 °F 30.2 °F 93% 29.73 in 1.8 mi NW 12.7 mph 17.3 mph N/A Snow Light Snow
7:35 PM 32.0 °F 23.6 °F 30.2 °F 93% 29.75 in 2.0 mi NW 10.4 mph - N/A Snow Light Snow
7:55 PM 32.0 °F 23.0 °F 30.2 °F 93% 29.76 in 2.0 mi NW 11.5 mph - N/A Snow Light Snow
8:16 PM 32.0 °F 23.0 °F 30.2 °F 93% 29.77 in 2.5 mi NW 11.5 mph 16.1 mph N/A Snow Light Snow
8:35 PM 32.0 °F 23.6 °F 30.2 °F 93% 29.78 in 3.0 mi NNW 10.4 mph - N/A Snow Light Snow
8:55 PM 32.0 °F 23.6 °F 30.2 °F 93% 29.79 in 3.0 mi NW 10.4 mph 16.1 mph N/A Snow Light Snow
9:16 PM 32.0 °F 23.6 °F 30.2 °F 93% 29.80 in 2.5 mi NW 10.4 mph 17.3 mph N/A Snow Light Snow
9:35 PM 32.0 °F 23.6 °F 30.2 °F 93% 29.81 in 3.0 mi NW 10.4 mph 17.3 mph N/A Snow Light Snow
9:55 PM 32.0 °F 23.6 °F 30.2 °F 93% 29.83 in 4.0 mi NNW 10.4 mph - N/A Snow Light Snow
10:16 PM 32.0 °F 24.2 °F 30.2 °F 93% 29.83 in 4.0 mi NW 9.2 mph - N/A Snow Light Snow
10:35 PM 32.0 °F 24.2 °F 30.2 °F 93% 29.84 in 4.0 mi NW 9.2 mph - N/A Snow Light Snow
10:56 PM 32.0 °F 23.6 °F 30.2 °F 93% 29.85 in 4.0 mi NW 10.4 mph - N/A Snow Light Snow
11:15 PM 32.0 °F 24.2 °F 32.0 °F 100% 29.86 in 4.0 mi NNW 9.2 mph - N/A Snow Light Snow
11:35 PM 32.0 °F 24.8 °F 32.0 °F 100% 29.87 in 2.5 mi NNW 8.1 mph - N/A Snow Light Snow
11:56 PM 32.0 °F 24.8 °F 30.2 °F 93% 29.87 in 3.0 mi NNW 8.1 mph - N/A Snow Light Snow